Location: N�rnberg
(49.4489°N, 11.0797°E)
Time: 08:18:39
(UTC+01:00)

ISS - Visible Passes

Search period start: 17 February 2019 00:00
Search period end: 27 February 2019 00:00
Orbit: 403 x 411 km, 51.6° (Epoch: 17 February)

Date Brightness Start Highest point End Pass type
(mag) Time Alt. Az. Time Alt. Az. Time Alt. Az.
23 Feb -1.1 06:34:04 10° S 06:36:32 20° SE 06:38:59 10° E visible
24 Feb -0.8 05:43:50 10° SSE 05:45:16 12° SE 05:46:42 10° ESE visible
25 Feb -2.4 06:26:45 10° SW 06:29:48 37° SSE 06:32:52 10° E visible
26 Feb -1.8 05:35:46 10° SSW 05:38:26 24° SE 05:41:08 10° E visible
